Vorticity
7 7 8 10 9 10 10 11 11 12 11 8 6 8 12 7 19 32 16 11 10 5 6 4 8 11 1 -3 6 8 6 2 -1 1 -2 -4 -1 0 4 5 3 2 4 7 8 5 2 5 6 3 2 3 3 1 1 3 7 8 7 5 3 4 4 3 3 4 4 4 3 4 5 5 7 6 7 9 9 9 8 5 4 2 2 4 4 4 5 6 7 7 7 7 7 7 7 8 8
6 6 7 7 7 10 10 10 11 12 10 10 10 8 9 7 14 14 6 11 4 1 7 6 7 11 12 5 5 8 11 7 -3 -3 -1 -3 -4 -3 4 4 2 4 5 8 7 4 4 3 1 0 -1 2 4 2 2 6 8 7 6 4 3 3 3 4 3 4 4 4 3 4 5 5 7 6 6 10 9 9 9 7 6 4 4 3 3 4 5 6 7 7 6 6 7 7 7 8 8
7 7 7 6 8 9 9 10 10 11 9 13 15 10 12 10 4 -3 5 9 -4 2 8 8 11 8 10 5 4 7 9 8 -2 -5 -0 -1 -5 -4 1 3 5 6 7 8 6 4 5 3 -0 -0 -1 3 4 2 5 8 8 6 4 4 3 3 3 4 4 4 4 4 3 4 5 6 7 6 5 9 11 8 7 7 6 5 4 4 4 4 5 6 6 7 6 6 7 7 7 7 8
7 7 7 7 8 7 8 9 9 10 8 12 17 14 12 12 17 18 19 10 -6 4 6 4 10 7 5 1 1 6 8 9 3 -2 -1 -3 -8 -7 0 7 11 9 7 8 8 5 4 3 -0 -1 2 5 4 3 7 8 6 5 4 4 3 3 4 4 4 3 4 4 3 4 5 7 7 7 6 10 12 8 6 6 6 5 5 5 4 5 6 6 5 6 6 7 7 6 6 6 7
8 8 8 8 7 7 8 8 9 8 4 8 12 11 10 9 11 13 21 15 0 6 10 6 6 6 6 2 2 4 4 6 6 1 -1 -3 -6 -2 3 10 15 10 6 8 10 7 5 3 0 3 6 4 3 6 9 7 5 5 4 3 4 4 4 4 3 4 4 3 3 5 7 7 6 6 7 11 12 8 5 5 6 6 6 5 4 6 6 5 6 7 6 7 7 6 6 5 7
9 10 9 8 7 7 8 8 10 7 6 11 10 11 12 13 8 8 15 4 -3 5 9 8 3 2 4 5 8 5 2 3 4 1 -1 0 4 8 3 9 17 11 8 11 11 8 5 4 5 7 5 4 6 9 7 5 4 3 3 3 4 4 5 4 3 4 4 4 4 7 8 7 7 7 8 12 11 7 6 5 5 5 6 5 4 5 4 3 6 7 6 6 6 6 6 6 6
8 9 8 7 8 7 8 9 9 7 11 10 8 14 13 12 9 8 10 -1 -1 4 3 6 5 4 6 5 5 8 10 9 8 6 5 6 15 20 12 12 13 10 11 12 11 8 5 6 8 6 4 7 9 8 5 4 4 3 3 3 4 4 5 4 4 4 4 5 6 7 8 8 8 7 9 12 9 6 6 6 5 4 6 6 5 3 1 4 6 6 5 6 5 6 6 6 5
7 9 8 7 7 7 8 9 6 6 14 11 7 14 11 9 5 2 8 5 -0 2 3 5 6 7 7 2 1 7 11 9 10 14 19 16 16 21 16 11 8 7 9 10 10 6 6 7 5 5 7 10 8 6 5 4 4 3 3 3 4 5 5 4 4 4 4 5 6 9 9 9 8 7 10 11 7 6 6 6 5 5 6 7 5 3 4 7 6 4 5 5 5 5 5 5 5
7 10 8 8 7 9 9 8 6 8 21 18 13 12 6 9 11 12 17 11 1 4 7 3 5 6 4 2 2 4 7 8 3 7 22 23 15 15 12 9 6 4 5 7 8 5 6 5 5 8 9 9 7 5 4 4 4 4 4 4 4 5 5 5 4 5 4 5 8 10 9 9 8 7 10 9 6 6 6 6 6 6 6 6 5 4 9 10 5 4 5 5 5 5 5 4 5
9 9 8 8 8 12 9 9 6 13 26 10 4 11 10 12 13 15 15 7 5 7 6 4 6 4 4 2 1 2 4 3 -3 1 15 19 14 13 10 9 10 8 10 9 5 6 6 6 8 9 8 7 6 4 4 3 4 3 3 4 5 6 5 5 5 5 4 6 9 9 9 10 8 8 9 7 6 6 6 6 6 6 5 5 6 8 12 9 3 4 5 5 5 5 5 5 6
9 7 9 9 9 13 8 9 5 16 28 1 1 17 11 9 5 7 6 2 5 5 5 7 5 2 2 1 -1 -1 -2 -0 6 13 13 12 9 7 9 9 10 10 9 6 4 6 7 8 8 7 7 6 5 4 4 3 3 3 5 6 5 5 6 6 5 5 6 9 10 9 10 10 7 9 9 7 6 7 7 6 6 6 5 5 6 10 10 5 3 4 4 4 4 5 6 6 6
9 7 9 9 10 11 5 9 2 16 33 3 4 15 3 6 4 5 6 4 5 2 6 7 2 2 2 2 5 6 6 8 10 9 7 13 10 4 9 9 8 8 5 5 6 6 6 7 6 7 7 5 4 4 3 3 4 5 6 5 6 7 7 6 5 8 11 12 10 10 12 7 5 9 10 8 6 7 8 7 5 4 5 6 9 11 7 4 4 5 4 3 3 4 5 6 6
9 7 7 8 9 10 6 12 8 22 36 2 -2 7 -0 5 2 -1 0 3 5 3 6 6 6 8 6 6 9 12 15 15 9 4 4 11 11 6 9 11 10 8 7 7 6 5 6 6 6 7 5 4 4 3 3 4 5 6 6 7 9 8 8 8 9 12 11 10 9 10 11 4 5 10 8 7 7 8 8 8 7 5 5 6 11 10 5 5 5 4 3 3 4 5 6 6 6
10 7 7 9 8 10 6 18 30 35 29 -5 -6 8 4 7 4 0 -0 -1 4 4 6 7 8 9 8 9 9 10 12 12 10 9 9 7 7 10 9 9 9 7 7 7 5 5 5 6 7 6 5 4 3 3 5 5 6 6 5 7 8 5 7 10 10 9 7 10 10 10 12 7 7 9 7 7 9 10 7 6 6 6 5 6 13 9 4 6 5 2 2 4 6 6 6 6 6
10 8 10 8 9 11 7 27 39 23 9 -7 1 9 -5 4 11 6 2 -1 2 3 7 7 2 3 5 6 13 17 13 9 9 12 15 10 6 7 7 7 7 8 8 5 4 5 6 8 7 5 4 3 4 6 5 5 6 5 6 8 8 8 10 9 7 8 11 14 10 12 16 12 8 8 9 8 8 9 7 5 5 5 5 8 13 8 4 6 3 1 3 6 7 6 6 6 6
8 8 9 9 10 9 14 34 24 -4 -5 -4 5 9 -9 -2 12 6 1 2 4 1 2 4 -1 2 5 4 13 19 14 9 8 7 12 14 7 5 7 8 8 8 5 2 3 5 7 8 6 5 4 4 6 5 5 6 6 6 8 10 9 9 8 5 5 10 14 12 9 15 14 7 8 9 10 10 10 11 9 7 3 4 9 13 12 6 5 4 1 2 5 7 6 6 6 6 7
6 8 8 11 10 10 24 28 5 -10 -1 -8 -11 2 -0 2 10 6 2 2 4 3 0 3 4 3 5 8 12 16 14 10 9 6 8 11 8 8 9 6 6 5 1 1 4 5 6 7 6 3 4 6 6 5 5 4 5 7 9 11 10 7 8 7 9 13 11 10 14 15 9 5 8 6 5 6 8 9 9 7 2 7 17 16 10 6 5 3 1 4 6 6 6 6 6 7 7
7 9 10 10 10 23 29 12 1 5 9 -4 -21 -8 9 6 9 9 4 5 3 3 2 1 4 4 9 17 14 13 14 12 11 9 10 13 10 9 8 5 6 4 2 3 4 4 5 6 4 4 6 6 5 4 4 5 8 11 12 10 9 13 17 14 14 16 13 13 15 10 7 9 4 -2 2 3 6 8 8 6 7 15 17 12 8 6 4 2 4 6 6 6 5 6 6 6 6
8 9 10 7 12 32 23 2 10 12 8 6 -19 -18 9 8 12 14 4 9 7 2 9 11 13 17 23 25 16 10 13 13 11 9 8 11 10 10 8 4 5 2 2 3 2 3 4 4 4 4 6 5 6 5 5 8 11 12 11 9 11 18 16 7 8 13 13 12 11 8 10 11 -2 -7 0 3 5 8 6 9 16 15 9 7 6 4 3 3 6 6 6 6 6 7 7 7 6
8 7 12 5 12 30 17 5 14 9 4 16 -4 -24 -3 9 18 20 4 7 7 4 12 11 11 20 25 19 12 9 10 10 8 8 7 6 8 9 9 7 6 4 4 3 2 3 3 4 5 7 7 7 6 6 11 13 13 11 6 8 13 12 5 2 10 11 7 12 16 13 11 12 3 -3 1 2 3 11 17 20 19 10 4 6 4 2 3 5 6 6 7 7 7 7 8 9 8
8 7 11 3 14 26 11 7 12 12 4 6 4 -16 -7 12 17 16 6 2 -0 3 7 4 2 5 11 8 6 7 5 5 5 5 6 6 7 8 10 9 6 3 2 2 3 5 5 5 6 8 9 9 9 11 15 13 11 9 4 7 10 9 8 10 18 13 8 14 18 13 10 10 6 5 4 1 8 23 27 19 10 6 5 4 3 2 5 6 6 7 8 8 6 7 9 10 9
9 9 9 1 21 23 4 6 4 11 7 -7 -9 -10 0 9 12 13 5 -1 -2 5 4 7 14 3 2 6 3 5 5 6 6 5 5 5 7 7 7 5 3 1 2 3 3 2 3 6 8 10 10 9 14 13 7 3 7 12 12 8 3 9 13 13 12 8 10 12 10 12 10 7 7 7 0 1 15 19 13 7 4 5 5 4 3 4 5 7 7 7 7 5 6 9 11 9 9
8 10 9 4 26 17 -1 7 -2 4 13 1 -15 -12 5 3 12 18 1 -1 3 10 1 2 25 16 3 6 5 6 6 7 8 7 7 9 8 6 4 4 4 3 3 5 7 11 12 11 9 11 10 7 9 11 10 10 9 11 12 7 6 10 9 10 7 5 13 9 1 5 6 3 2 2 3 13 17 6 3 7 7 6 5 4 3 5 6 7 7 6 5 6 10 12 11 10 9
7 10 8 5 27 15 -1 5 -3 1 8 5 -10 -14 6 6 13 14 1 8 5 6 4 -3 18 22 6 5 6 5 6 8 7 8 8 10 9 6 6 6 7 8 9 12 13 13 10 9 11 14 13 6 4 6 9 10 10 10 9 9 9 3 3 12 11 8 13 4 -3 4 9 9 9 11 16 19 12 3 8 10 8 7 5 5 4 6 8 7 7 6 8 11 13 10 9 12 12
6 10 7 7 27 15 2 4 -5 3 4 2 -2 -13 -5 4 10 4 -2 9 6 11 16 -1 2 15 9 3 6 5 5 5 6 9 7 7 8 8 8 6 9 10 10 15 11 4 1 3 7 12 14 10 5 3 1 2 11 14 12 13 9 6 11 15 10 5 5 0 4 13 12 11 14 16 12 8 8 7 8 7 8 8 5 6 6 8 9 8 8 8 12 14 13 10 12 19 17
6 8 7 8 25 14 -1 1 -4 4 5 -1 1 -7 -12 -7 5 7 0 -0 -1 9 15 2 -2 12 14 7 9 9 7 6 10 14 10 9 10 7 7 7 4 -2 4 17 13 5 5 7 6 7 10 8 6 7 5 5 14 15 13 14 13 17 17 9 8 7 6 6 11 11 6 5 8 11 10 8 9 7 7 7 8 7 7 8 8 10 10 9 9 10 14 14 14 12 12 19 17
8 8 8 7 20 17 -1 -5 -4 2 7 1 -4 -3 -5 -9 -2 7 11 7 -1 -1 4 4 -1 6 12 10 11 9 6 8 11 10 7 6 7 5 2 0 -2 -0 14 19 9 4 0 0 5 6 6 8 12 14 12 11 13 10 11 16 13 11 5 2 10 11 10 10 7 3 2 5 9 14 12 2 1 8 11 9 9 8 9 11 12 12 9 10 11 12 15 14 14 13 10 13 12
9 9 10 7 14 22 7 -9 -10 -6 3 5 -2 -3 -3 -6 -3 5 16 19 13 10 9 11 9 6 9 13 14 7 3 5 7 5 3 1 1 3 1 2 10 13 11 -2 -6 7 10 5 4 5 9 13 11 10 11 12 10 5 6 12 8 4 6 12 17 11 10 9 2 1 5 13 21 21 7 -3 7 15 12 8 9 9 10 13 12 11 10 11 12 11 13 12 12 12 10 12 11
8 9 10 9 12 22 17 -4 -11 -9 -5 -0 0 -1 -4 0 10 12 13 13 14 16 14 15 16 13 11 16 18 12 9 7 7 4 -1 1 -0 1 6 13 17 14 7 -1 -2 3 6 9 4 0 9 16 11 8 14 13 11 15 15 13 9 10 16 15 11 4 -0 0 2 8 15 20 19 14 5 6 14 11 7 9 10 10 12 12 10 9 9 10 12 12 12 11 11 11 11 13 15
7 8 9 9 11 19 25 12 -4 -6 -4 -2 -1 -0 0 0 2 6 8 6 8 10 9 10 9 9 12 14 12 8 9 7 8 5 -1 4 3 -2 1 1 4 12 10 -0 -2 -1 -2 8 12 3 3 11 13 10 11 9 10 20 25 20 11 6 5 2 1 2 -0 3 11 14 19 20 8 2 7 10 10 7 9 11 9 10 9 8 8 8 8 10 14 12 9 9 10 10 11 13 15
11 11 10 8 11 16 25 23 8 -2 -3 -2 -2 -0 2 -7 -14 3 15 8 8 8 5 10 9 9 12 12 10 6 4 2 4 5 1 3 4 3 2 -5 -5 13 26 13 1 5 4 8 19 14 3 5 8 7 4 4 6 11 13 9 0 -5 -2 3 6 10 13 15 16 13 15 16 4 2 9 9 9 10 10 9 8 7 5 7 9 8 8 11 12 11 9 8 8 8 9 10 10
11 12 11 10 12 14 18 22 20 11 2 -4 -5 -3 1 0 1 16 21 7 8 11 6 10 10 8 11 10 10 8 3 2 3 5 4 2 3 6 7 4 -9 -17 4 18 10 10 6 11 26 18 7 9 10 10 5 3 4 2 2 2 1 4 7 12 14 18 24 21 18 15 10 8 4 7 12 10 10 10 8 7 5 5 6 8 9 9 9 8 8 9 8 6 7 8 7 7 9
8 9 10 10 11 13 15 16 20 21 19 11 3 1 3 10 17 18 17 8 5 8 5 10 11 9 16 14 9 9 7 7 10 7 3 2 4 6 7 14 8 -14 -9 5 9 18 9 8 26 19 9 16 17 15 9 6 7 5 8 9 9 14 13 11 13 18 17 7 4 4 0 5 10 9 9 9 9 8 6 5 5 6 8 8 9 10 9 7 7 8 7 5 7 7 5 7 9
11 11 10 12 12 13 14 13 17 19 20 19 12 11 9 11 16 13 14 11 2 5 9 10 11 12 16 11 4 8 9 9 15 12 7 6 5 7 7 11 15 11 11 4 2 20 17 6 15 15 12 12 12 16 16 12 10 9 9 7 9 15 16 10 10 14 15 16 18 12 4 8 10 5 7 10 8 6 6 6 7 8 7 8 10 10 8 8 7 7 6 6 7 7 6 6 8
14 14 14 15 14 11 9 6 12 16 15 17 14 10 10 11 13 10 13 14 4 7 12 6 2 10 16 9 2 2 0 4 15 13 9 9 6 4 5 7 10 10 11 4 -1 10 17 12 9 9 10 4 0 7 13 12 9 9 6 5 10 15 18 18 20 21 15 20 27 17 7 7 6 8 11 9 6 6 6 7 7 7 8 8 9 9 9 8 7 7 6 5 6 8 7 6 7
12 12 12 12 8 6 9 4 4 11 12 15 15 13 21 27 22 14 11 12 12 9 7 -1 -5 4 14 11 2 -3 -2 8 19 17 9 8 7 5 4 7 9 7 4 9 14 7 1 6 8 9 10 8 8 6 6 8 8 9 6 7 11 12 18 13 9 14 4 -1 6 6 6 8 9 12 10 6 7 7 6 6 6 6 7 7 8 9 8 8 8 7 7 6 7 7 7 6 7
9 9 10 8 6 9 20 23 17 14 10 11 16 22 29 25 19 26 23 11 11 8 0 -3 -4 1 11 14 6 1 8 14 17 18 13 9 8 7 9 9 8 7 3 6 14 13 14 17 12 11 11 10 16 12 5 6 9 10 7 9 10 10 15 -0 -13 1 4 -2 4 7 9 13 12 10 5 5 6 5 6 6 6 7 7 7 9 9 8 9 8 8 8 7 7 7 6 6 7
7 9 8 5 10 14 22 28 18 12 14 12 12 18 13 -5 -4 25 33 14 4 3 4 5 5 8 12 10 2 -3 -2 -1 5 10 6 6 9 9 10 9 8 7 5 4 7 14 26 27 10 7 10 6 12 15 11 10 10 9 6 8 10 9 12 3 -6 5 10 9 11 10 11 12 9 5 4 5 6 6 7 7 7 8 7 8 9 9 9 9 8 8 8 7 8 6 6 6 7
10 8 4 5 13 18 23 20 5 5 18 15 9 12 2 -17 -6 24 31 18 6 0 4 8 7 9 6 -3 -6 -5 -11 -8 8 9 -4 -1 7 9 10 10 10 10 7 10 13 10 17 23 14 10 10 6 8 12 11 9 8 6 7 11 12 8 8 5 4 11 15 15 13 10 10 8 4 5 6 7 8 8 7 7 7 7 7 8 8 8 8 8 8 9 9 9 8 7 7 7 8
12 7 6 13 16 24 25 11 5 10 10 7 5 3 -3 -11 -4 15 22 12 0 -2 1 3 3 6 5 -2 -2 1 -5 0 14 8 -4 -0 3 4 9 8 7 10 10 10 10 5 7 16 17 12 12 11 9 8 7 8 9 9 12 16 14 7 5 7 9 12 13 11 10 9 8 6 7 8 8 7 8 8 8 7 8 8 9 9 8 8 8 8 9 9 9 10 9 8 8 8 9
13 8 13 20 20 29 20 0 13 17 -5 -3 6 -2 -2 3 -1 3 18 13 -6 -7 0 4 7 9 10 9 5 1 -4 2 11 8 6 10 8 7 10 8 4 4 8 9 9 10 10 13 14 13 14 14 11 9 6 5 8 12 14 14 13 7 5 8 8 8 9 9 10 9 8 9 9 7 6 6 7 8 9 8 9 10 9 9 9 9 9 9 8 8 9 9 9 8 8 9 9
12 10 19 27 22 21 12 1 17 17 -2 1 11 11 9 11 7 -0 13 22 3 -8 -2 4 8 6 1 2 1 -1 1 8 11 10 11 10 11 13 11 9 8 6 9 11 10 14 16 15 17 18 16 13 10 9 8 8 9 12 12 11 12 8 4 6 6 6 10 10 9 10 9 8 4 2 4 5 6 7 8 9 10 10 8 8 8 8 8 8 8 8 7 7 8 7 8 8 8
11 12 23 33 19 6 7 10 15 14 16 15 5 14 20 14 13 3 2 17 12 1 -1 -5 -2 1 -2 -1 0 -1 3 8 8 4 2 2 8 13 10 9 11 10 12 14 11 11 11 7 9 18 21 15 10 11 12 14 11 9 12 13 11 6 6 11 9 6 10 10 10 10 6 2 0 2 5 5 5 6 8 9 9 8 7 7 6 6 6 6 6 6 6 6 6 6 7 7 7
11 11 21 31 13 -2 5 9 11 7 10 19 9 9 18 12 8 3 0 7 10 12 12 1 -4 -2 2 4 1 -0 -0 -0 -1 -4 -5 0 8 12 11 10 12 13 12 12 12 12 9 -0 -5 6 18 16 12 13 14 14 8 4 9 10 4 5 16 22 14 7 10 8 4 3 2 2 4 6 7 6 5 6 8 9 9 8 7 6 6 6 5 5 5 5 5 6 6 6 7 7 6
19 16 16 23 6 -2 6 2 10 6 -12 0 12 6 10 10 4 4 6 4 2 11 14 6 -3 -7 -0 6 4 3 2 -0 0 1 4 11 11 9 10 9 10 14 13 11 12 12 13 11 4 5 14 17 14 12 12 13 10 7 8 5 1 8 18 19 12 8 8 3 -1 1 4 7 9 8 7 6 6 7 7 8 9 8 7 7 7 7 8 8 8 7 8 9 8 8 8 7 7
26 22 14 19 4 -5 5 3 7 11 -8 -10 2 2 0 -1 -2 -3 -5 -8 -8 -1 2 -1 -3 -1 4 7 5 3 1 4 7 10 16 18 13 12 14 12 11 11 9 10 11 8 11 15 13 10 15 20 20 15 11 11 12 12 10 5 3 7 8 5 5 7 7 1 -1 4 8 8 5 3 4 7 8 9 8 8 9 7 6 5 5 7 10 11 12 13 13 13 12 11 10 9 9
22 19 15 22 10 -7 -1 3 3 8 4 -5 -4 3 2 -2 -1 -8 -14 -10 -5 0 6 9 9 11 13 11 6 1 1 8 12 15 21 19 13 13 12 10 11 8 8 10 9 7 11 13 11 12 16 18 19 17 14 13 13 11 8 5 5 6 4 2 2 7 8 4 3 6 5 1 0 4 8 9 8 9 9 9 7 6 5 4 4 7 10 11 13 15 15 14 13 12 11 11 11
16 15 16 22 17 -0 -8 -4 -0 4 7 3 -0 4 6 11 18 13 7 12 15 14 18 21 17 13 17 16 9 2 3 11 13 16 23 18 10 10 8 7 9 8 7 8 8 9 11 13 12 8 6 5 9 11 10 13 14 10 5 5 5 5 7 8 9 12 11 6 3 2 -0 0 4 9 11 11 9 9 10 10 8 7 6 4 4 6 9 10 11 12 13 13 11 10 9 9 10
13 13 15 22 21 7 -6 -6 -2 -0 3 3 2 1 2 7 17 28 28 21 18 20 21 18 11 7 10 8 5 5 8 11 13 18 23 17 12 11 8 8 8 9 10 10 10 9 9 14 16 10 2 -1 3 6 5 7 10 7 4 6 6 6 7 8 9 9 8 5 2 -0 1 5 6 7 9 10 10 10 10 9 8 7 6 5 5 5 7 9 9 9 8 6 5 6 6 7 9
15 15 12 19 25 13 -3 -7 -6 -2 0 0 -0 -1 1 -2 -5 11 26 18 7 10 13 9 2 3 8 10 14 21 20 15 14 17 15 10 11 12 10 9 9 11 13 13 10 9 10 12 13 12 9 5 6 7 6 7 8 8 10 12 12 11 10 9 7 5 4 2 2 2 4 7 8 8 10 9 8 8 10 10 8 7 6 6 6 5 7 9 6 4 4 4 4 5 7 9 10
13 15 9 12 24 20 7 -1 -1 2 -3 -4 2 1 1 0 -11 -8 11 17 7 -1 1 4 2 4 8 9 12 13 10 10 17 19 14 12 14 12 11 11 12 12 12 10 9 8 9 10 9 9 8 6 6 5 4 4 4 5 8 12 13 12 9 9 10 10 8 3 1 2 4 8 9 7 7 8 8 5 4 6 8 8 8 8 8 6 6 8 6 1 2 6 9 10 12 13 12
9 14 12 11 18 17 14 14 14 14 8 5 13 10 1 -1 -5 -2 12 20 16 8 3 2 3 5 4 4 7 6 -1 2 12 16 13 15 16 12 9 8 9 11 9 9 11 11 10 8 7 6 4 5 4 4 5 7 8 7 6 7 10 9 6 5 5 8 12 11 8 3 0 4 7 4 5 9 10 8 4 4 5 8 9 10 10 8 6 8 7 3 4 8 11 13 14 14 12
12 16 13 13 18 15 13 14 10 10 14 16 22 23 16 9 5 8 13 13 14 13 10 8 7 5 1 4 10 8 3 1 3 7 8 8 9 15 20 15 10 9 9 13 14 9 6 3 3 4 3 4 3 3 5 5 7 9 7 7 8 7 5 3 3 5 9 13 12 5 -0 -1 1 1 2 5 7 9 11 10 8 9 11 10 9 9 8 8 8 5 6 10 12 12 11 10 9
12 16 10 5 16 20 15 12 9 8 9 8 14 19 17 13 11 10 8 7 8 9 10 11 12 11 12 15 13 9 10 7 2 3 7 5 2 10 18 10 1 2 10 18 16 11 4 -5 -4 3 4 5 5 5 5 3 4 5 6 7 7 6 6 4 5 5 7 11 11 7 3 2 4 5 3 1 0 2 9 15 14 13 16 14 10 10 8 8 9 7 9 12 11 10 9 8 8
7 12 10 2 7 17 13 6 7 13 13 5 5 11 9 6 7 8 7 6 5 5 6 9 11 12 13 11 7 7 12 10 5 4 5 6 3 3 7 4 0 2 6 11 18 29 30 13 0 2 5 8 8 9 10 5 2 4 4 3 2 4 6 6 4 3 4 6 7 7 7 7 10 13 7 1 -0 0 5 12 13 12 15 15 11 10 10 9 10 10 12 13 12 12 10 9 8
7 6 7 3 2 7 12 9 2 6 12 9 6 6 4 5 6 4 4 7 6 3 5 6 6 7 7 6 3 5 9 8 8 9 6 6 6 3 3 4 7 12 11 10 12 15 24 27 19 11 7 5 6 12 18 12 6 9 9 5 5 6 6 5 4 5 6 7 7 7 7 6 7 13 14 9 6 6 5 8 12 9 8 9 10 11 11 10 11 12 14 14 13 13 10 8 9
8 5 3 3 3 4 7 10 7 3 4 7 9 6 4 6 7 5 4 6 6 7 9 11 11 9 10 12 11 12 14 10 6 6 5 10 15 11 4 1 9 18 15 12 5 -11 -7 11 20 17 9 5 7 11 15 13 10 12 12 10 9 8 7 7 7 10 12 13 13 9 7 6 4 5 10 11 11 11 8 8 10 7 5 9 12 13 13 12 13 13 12 11 10 9 7 8 10
6 4 2 1 6 11 9 5 6 7 6 6 7 7 7 6 5 6 4 4 7 6 6 6 8 10 13 13 11 13 17 13 14 18 14 12 10 6 6 7 11 16 9 1 -3 -8 -5 3 12 20 15 8 10 10 11 14 12 11 10 7 6 6 8 8 6 8 11 11 12 10 7 8 7 7 8 8 11 13 10 11 15 11 9 10 10 11 11 10 8 6 5 5 6 6 8 9 10
Height
5840 5841 5843 5843 5844 5845 5846 5847 5847 5848 5849 5850 5850 5848 5849 5850 5850 5850 5849 5849 5847 5849 5851 5849 5850 5852 5854 5856 5856 5858 5859 5860 5860 5861 5861 5861 5862 5861 5861 5860 5859 5859 5861 5862 5862 5862 5861 5861 5860 5860 5860 5860 5860 5860 5860 5859 5859 5859 5858 5857 5856 5856 5855 5855 5855 5854 5853 5853 5852 5851 5851 5851 5851 5850 5850 5849 5849 5849 5849 5849 5849 5848 5848 5847 5847 5846 5845 5844 5844 5843 5843 5843 5842 5842 5841 5841 5841
5837 5838 5839 5840 5841 5842 5843 5844 5844 5845 5847 5846 5845 5845 5846 5847 5846 5846 5845 5844 5842 5847 5848 5846 5848 5849 5850 5851 5853 5855 5857 5859 5859 5861 5861 5860 5860 5859 5859 5858 5858 5858 5859 5860 5860 5860 5859 5859 5859 5859 5859 5859 5859 5858 5858 5858 5857 5857 5856 5855 5855 5854 5854 5854 5853 5853 5852 5851 5851 5850 5850 5849 5849 5849 5849 5848 5848 5848 5848 5848 5848 5847 5847 5846 5846 5845 5844 5843 5843 5843 5842 5842 5841 5841 5840 5840 5840
5834 5835 5836 5837 5838 5839 5840 5841 5842 5843 5844 5842 5841 5843 5844 5844 5843 5842 5842 5840 5840 5845 5846 5844 5846 5847 5848 5849 5851 5853 5855 5857 5858 5860 5859 5859 5858 5857 5856 5856 5856 5856 5857 5858 5858 5858 5858 5858 5857 5857 5857 5857 5857 5857 5857 5856 5855 5854 5854 5853 5853 5853 5852 5852 5852 5852 5851 5850 5849 5849 5848 5848 5847 5848 5847 5847 5847 5847 5847 5846 5846 5846 5846 5845 5845 5844 5843 5843 5842 5842 5841 5841 5840 5840 5840 5839 5839
5831 5832 5833 5834 5835 5836 5837 5839 5839 5841 5841 5839 5839 5840 5840 5841 5841 5841 5840 5838 5837 5842 5843 5843 5844 5845 5846 5847 5848 5851 5853 5855 5856 5857 5857 5856 5855 5855 5854 5854 5854 5854 5855 5855 5856 5856 5856 5856 5855 5855 5855 5855 5855 5855 5855 5854 5853 5852 5852 5851 5851 5851 5851 5851 5850 5850 5849 5849 5848 5847 5847 5846 5846 5846 5846 5846 5845 5845 5845 5845 5845 5845 5845 5844 5844 5843 5842 5842 5841 5841 5840 5840 5839 5839 5839 5839 5839
5828 5829 5830 5831 5832 5833 5835 5836 5837 5838 5838 5836 5836 5837 5837 5838 5838 5838 5839 5836 5836 5840 5841 5842 5842 5843 5844 5845 5846 5848 5851 5853 5854 5854 5855 5854 5853 5853 5853 5853 5853 5853 5853 5853 5854 5854 5854 5854 5854 5854 5853 5853 5853 5853 5853 5852 5851 5850 5850 5849 5850 5850 5849 5849 5848 5848 5848 5847 5847 5846 5846 5845 5844 5844 5845 5844 5844 5844 5844 5844 5844 5844 5844 5843 5843 5842 5842 5841 5840 5840 5839 5839 5839 5838 5838 5838 5838
5825 5826 5827 5828 5829 5831 5832 5833 5834 5835 5834 5833 5834 5834 5835 5835 5835 5836 5836 5834 5835 5838 5839 5840 5840 5841 5842 5843 5845 5847 5849 5851 5852 5852 5852 5852 5851 5850 5851 5851 5851 5851 5851 5851 5852 5852 5852 5852 5852 5852 5852 5852 5851 5851 5850 5849 5848 5848 5848 5848 5848 5848 5848 5847 5846 5846 5846 5845 5845 5845 5845 5844 5843 5843 5843 5843 5843 5843 5843 5842 5843 5843 5843 5843 5842 5842 5841 5840 5840 5839 5839 5838 5838 5838 5838 5838 5837
5821 5822 5823 5824 5826 5828 5829 5831 5832 5831 5831 5831 5832 5833 5833 5833 5833 5833 5832 5831 5833 5835 5837 5838 5839 5839 5840 5842 5844 5845 5848 5850 5850 5851 5851 5849 5848 5848 5848 5849 5849 5849 5849 5849 5850 5850 5850 5850 5850 5850 5850 5850 5849 5849 5848 5847 5846 5846 5846 5846 5846 5846 5846 5845 5844 5844 5844 5844 5844 5844 5843 5842 5842 5841 5842 5842 5842 5841 5841 5841 5841 5842 5842 5841 5841 5841 5840 5840 5839 5838 5838 5837 5837 5837 5837 5837 5837
5817 5819 5820 5821 5823 5824 5826 5828 5828 5828 5828 5828 5829 5830 5830 5830 5830 5830 5830 5829 5830 5832 5834 5835 5836 5837 5838 5839 5840 5843 5847 5848 5848 5848 5847 5846 5845 5845 5846 5847 5847 5847 5847 5847 5847 5847 5848 5848 5848 5848 5848 5847 5847 5846 5845 5844 5844 5844 5844 5844 5844 5844 5844 5843 5842 5842 5842 5842 5842 5842 5841 5841 5840 5840 5840 5840 5840 5840 5840 5840 5840 5840 5840 5840 5840 5840 5840 5839 5838 5837 5837 5836 5836 5836 5836 5836 5836
5814 5815 5816 5818 5820 5822 5824 5825 5825 5824 5824 5824 5826 5826 5826 5827 5827 5827 5827 5826 5827 5830 5832 5833 5834 5835 5835 5836 5837 5841 5844 5844 5844 5844 5843 5843 5843 5844 5844 5845 5845 5845 5845 5845 5845 5845 5845 5846 5846 5846 5845 5845 5844 5844 5843 5842 5842 5842 5842 5842 5842 5842 5841 5841 5841 5841 5841 5841 5841 5840 5839 5839 5839 5839 5839 5838 5839 5839 5839 5839 5839 5839 5839 5839 5839 5839 5839 5839 5837 5836 5836 5835 5835 5835 5835 5835 5835
5810 5812 5813 5815 5817 5819 5821 5822 5821 5821 5821 5821 5822 5823 5823 5823 5823 5824 5824 5824 5826 5828 5830 5830 5831 5832 5833 5834 5835 5838 5840 5840 5840 5840 5840 5840 5841 5841 5842 5842 5843 5843 5843 5843 5843 5843 5843 5843 5843 5843 5843 5842 5842 5841 5840 5840 5839 5839 5840 5840 5840 5840 5839 5839 5839 5839 5839 5839 5839 5838 5837 5837 5837 5837 5837 5837 5837 5837 5838 5838 5838 5838 5838 5838 5838 5838 5837 5837 5837 5835 5835 5835 5835 5834 5834 5835 5835
5807 5808 5810 5812 5814 5817 5818 5817 5817 5818 5817 5818 5820 5820 5820 5820 5820 5822 5822 5823 5824 5826 5827 5827 5828 5829 5830 5831 5833 5835 5837 5837 5838 5838 5837 5837 5838 5838 5839 5840 5841 5841 5841 5841 5841 5841 5841 5841 5841 5841 5840 5840 5839 5838 5837 5837 5837 5837 5837 5838 5838 5838 5837 5837 5837 5837 5837 5837 5837 5836 5835 5835 5835 5835 5835 5835 5836 5836 5836 5836 5836 5837 5837 5837 5837 5836 5836 5836 5836 5835 5835 5834 5834 5833 5834 5834 5834
5803 5805 5807 5809 5811 5813 5813 5813 5813 5814 5814 5816 5818 5818 5817 5818 5819 5820 5821 5821 5822 5824 5824 5825 5825 5826 5828 5830 5831 5833 5834 5835 5836 5835 5835 5834 5834 5836 5837 5838 5838 5839 5839 5839 5839 5839 5838 5838 5838 5838 5838 5837 5836 5836 5835 5834 5834 5835 5836 5836 5836 5835 5835 5834 5835 5835 5835 5835 5834 5834 5834 5834 5834 5834 5834 5834 5834 5834 5835 5835 5835 5835 5835 5836 5836 5835 5836 5836 5836 5835 5835 5834 5833 5832 5832 5832 5833
5800 5802 5804 5805 5808 5810 5810 5810 5811 5811 5812 5813 5815 5815 5815 5816 5816 5817 5818 5819 5820 5821 5822 5823 5824 5825 5827 5827 5828 5830 5832 5833 5833 5833 5832 5832 5832 5834 5835 5835 5836 5836 5836 5836 5836 5836 5836 5836 5836 5835 5835 5835 5834 5833 5832 5832 5832 5833 5834 5834 5833 5832 5832 5833 5833 5833 5833 5832 5832 5832 5832 5832 5832 5832 5832 5832 5832 5833 5833 5833 5833 5834 5834 5835 5835 5835 5835 5836 5835 5835 5834 5833 5832 5832 5831 5831 5831
5797 5798 5800 5802 5804 5807 5807 5808 5809 5809 5809 5810 5812 5814 5814 5814 5813 5814 5816 5817 5818 5819 5820 5822 5823 5824 5824 5825 5825 5826 5829 5829 5829 5830 5830 5830 5830 5831 5833 5833 5834 5834 5834 5834 5834 5834 5834 5834 5833 5833 5832 5832 5831 5830 5829 5830 5830 5831 5831 5831 5830 5830 5831 5831 5831 5831 5830 5830 5830 5830 5830 5830 5831 5831 5830 5830 5831 5831 5831 5832 5832 5833 5833 5833 5834 5834 5834 5835 5834 5834 5833 5832 5831 5830 5830 5830 5830
5793 5795 5797 5799 5801 5804 5805 5806 5806 5806 5806 5809 5811 5811 5811 5810 5810 5812 5813 5815 5816 5816 5818 5819 5821 5822 5822 5822 5822 5823 5825 5825 5825 5826 5827 5828 5828 5830 5831 5831 5831 5832 5832 5832 5832 5832 5831 5831 5831 5830 5830 5829 5828 5828 5827 5828 5828 5828 5829 5829 5829 5829 5829 5829 5829 5828 5828 5828 5828 5828 5828 5829 5829 5829 5829 5829 5829 5829 5830 5830 5831 5831 5831 5832 5832 5833 5833 5834 5833 5832 5831 5830 5830 5829 5829 5829 5829
5790 5792 5794 5797 5799 5801 5803 5803 5803 5803 5805 5807 5808 5808 5808 5807 5807 5809 5811 5812 5813 5813 5814 5817 5818 5819 5820 5820 5820 5820 5822 5822 5822 5823 5824 5826 5827 5828 5828 5829 5829 5829 5829 5829 5829 5829 5829 5829 5828 5828 5827 5827 5827 5826 5826 5826 5825 5826 5826 5827 5827 5827 5827 5827 5826 5826 5826 5826 5826 5825 5826 5827 5828 5827 5827 5827 5827 5828 5829 5829 5829 5830 5830 5830 5831 5832 5832 5832 5831 5830 5829 5829 5828 5828 5827 5827 5827
5786 5788 5791 5795 5797 5799 5800 5800 5801 5803 5803 5803 5804 5805 5806 5806 5806 5807 5808 5809 5811 5811 5811 5815 5816 5816 5818 5818 5818 5818 5819 5819 5820 5820 5822 5823 5824 5826 5826 5827 5827 5827 5827 5827 5827 5827 5827 5826 5825 5825 5825 5825 5825 5824 5824 5823 5823 5823 5824 5825 5825 5824 5824 5824 5824 5824 5823 5823 5823 5823 5824 5825 5826 5826 5826 5826 5826 5826 5827 5827 5828 5828 5828 5829 5830 5831 5831 5830 5829 5829 5828 5827 5827 5826 5826 5826 5826
5782 5785 5789 5793 5796 5798 5798 5798 5800 5801 5800 5799 5800 5802 5803 5803 5804 5805 5806 5806 5808 5808 5809 5812 5814 5815 5816 5815 5815 5816 5816 5817 5818 5819 5820 5821 5822 5823 5824 5825 5825 5825 5825 5825 5824 5824 5824 5823 5823 5823 5824 5823 5822 5821 5821 5821 5821 5821 5822 5822 5822 5821 5821 5821 5821 5821 5821 5821 5821 5821 5822 5823 5824 5825 5825 5825 5825 5825 5825 5825 5826 5826 5827 5827 5828 5829 5829 5828 5827 5827 5826 5826 5825 5825 5825 5825 5824
5780 5783 5786 5791 5795 5795 5794 5795 5797 5797 5796 5796 5795 5798 5800 5800 5800 5802 5803 5804 5805 5805 5807 5811 5812 5813 5813 5813 5813 5814 5814 5815 5816 5817 5818 5819 5820 5821 5822 5822 5823 5823 5822 5822 5822 5821 5821 5820 5820 5821 5821 5821 5820 5819 5819 5819 5819 5819 5819 5819 5819 5819 5818 5818 5818 5818 5818 5818 5819 5819 5821 5822 5822 5823 5823 5824 5824 5824 5823 5823 5824 5824 5825 5826 5826 5827 5826 5826 5826 5825 5825 5824 5824 5825 5824 5823 5822
5777 5780 5784 5789 5792 5792 5792 5792 5793 5793 5793 5793 5792 5793 5797 5797 5797 5799 5801 5802 5802 5802 5805 5809 5810 5810 5811 5811 5811 5812 5812 5813 5814 5815 5816 5817 5818 5819 5820 5820 5820 5820 5820 5819 5819 5818 5817 5817 5818 5819 5819 5818 5818 5818 5817 5817 5817 5816 5817 5818 5817 5817 5817 5816 5816 5816 5816 5816 5817 5818 5819 5820 5821 5821 5822 5822 5822 5822 5822 5822 5822 5823 5824 5824 5824 5824 5824 5824 5824 5823 5823 5823 5823 5823 5823 5822 5821
5775 5777 5782 5786 5787 5788 5789 5789 5789 5790 5790 5791 5790 5790 5793 5795 5795 5796 5798 5799 5799 5800 5804 5806 5807 5808 5808 5808 5809 5809 5810 5811 5812 5813 5814 5815 5816 5817 5817 5818 5818 5818 5817 5816 5815 5815 5814 5815 5816 5817 5817 5816 5816 5816 5816 5816 5815 5815 5815 5816 5816 5816 5815 5815 5814 5814 5815 5815 5815 5817 5818 5819 5819 5820 5820 5820 5820 5820 5820 5821 5821 5822 5822 5822 5822 5822 5822 5822 5822 5822 5822 5822 5821 5821 5821 5820 5819
5773 5775 5780 5783 5784 5785 5785 5785 5786 5786 5787 5787 5787 5789 5792 5793 5794 5794 5795 5796 5796 5799 5802 5803 5803 5805 5806 5806 5805 5806 5808 5809 5810 5811 5811 5812 5813 5814 5815 5816 5816 5815 5814 5813 5812 5811 5812 5813 5814 5814 5814 5814 5814 5813 5813 5813 5813 5813 5813 5815 5815 5815 5814 5814 5813 5813 5813 5814 5815 5816 5817 5818 5818 5818 5818 5818 5819 5819 5820 5820 5821 5821 5821 5821 5820 5820 5820 5820 5820 5820 5820 5820 5820 5819 5819 5818 5818
5770 5773 5777 5779 5781 5782 5782 5782 5782 5783 5784 5784 5784 5787 5790 5792 5792 5792 5793 5793 5794 5798 5800 5801 5801 5802 5803 5804 5803 5804 5805 5807 5807 5808 5808 5810 5811 5812 5813 5813 5813 5812 5810 5809 5809 5809 5811 5811 5811 5811 5811 5812 5811 5811 5810 5810 5810 5810 5812 5813 5813 5813 5813 5813 5812 5812 5812 5813 5813 5815 5816 5817 5817 5817 5817 5817 5818 5819 5819 5819 5819 5819 5819 5819 5819 5818 5818 5818 5818 5818 5818 5818 5818 5817 5817 5816 5816
5767 5770 5774 5776 5779 5780 5779 5779 5780 5779 5780 5781 5781 5783 5787 5790 5790 5790 5791 5792 5794 5796 5798 5800 5800 5800 5801 5801 5802 5802 5803 5805 5805 5805 5806 5807 5809 5810 5810 5810 5809 5807 5806 5807 5807 5809 5810 5810 5810 5809 5809 5809 5809 5809 5808 5807 5808 5809 5810 5811 5811 5811 5811 5812 5811 5811 5811 5811 5812 5813 5814 5814 5814 5815 5816 5816 5817 5818 5818 5818 5818 5817 5817 5817 5817 5817 5816 5816 5816 5816 5816 5817 5817 5816 5815 5815 5815
5765 5768 5771 5774 5776 5776 5776 5777 5777 5777 5777 5778 5779 5780 5782 5785 5786 5787 5789 5790 5792 5794 5797 5798 5799 5798 5798 5799 5800 5800 5801 5802 5803 5804 5804 5805 5806 5806 5806 5804 5803 5803 5803 5804 5806 5809 5809 5808 5808 5807 5807 5807 5807 5807 5806 5805 5806 5808 5809 5809 5809 5809 5810 5811 5810 5810 5811 5811 5811 5812 5812 5812 5813 5814 5814 5815 5816 5816 5817 5816 5816 5816 5815 5815 5815 5815 5815 5814 5814 5814 5815 5815 5815 5814 5814 5814 5813
5763 5766 5767 5770 5773 5773 5773 5774 5774 5775 5775 5776 5776 5777 5779 5780 5782 5784 5786 5788 5790 5791 5794 5796 5796 5797 5797 5797 5798 5798 5799 5800 5801 5802 5802 5802 5802 5801 5800 5800 5802 5801 5800 5803 5806 5807 5806 5805 5805 5805 5805 5805 5805 5805 5804 5804 5805 5807 5807 5807 5807 5807 5809 5810 5809 5809 5810 5810 5810 5811 5811 5812 5812 5813 5813 5814 5815 5815 5815 5814 5814 5814 5814 5814 5814 5813 5813 5813 5813 5813 5813 5813 5813 5812 5812 5812 5812
5761 5762 5763 5766 5768 5769 5769 5770 5771 5772 5773 5774 5774 5775 5777 5778 5779 5781 5784 5787 5789 5789 5791 5792 5794 5795 5795 5795 5796 5796 5797 5798 5799 5799 5798 5798 5797 5797 5798 5800 5801 5799 5799 5802 5804 5803 5802 5802 5802 5803 5803 5803 5803 5803 5803 5803 5804 5805 5806 5805 5806 5806 5807 5809 5809 5808 5808 5809 5809 5810 5810 5811 5811 5812 5812 5813 5813 5813 5813 5812 5812 5812 5812 5812 5812 5812 5812 5812 5812 5812 5811 5811 5811 5811 5811 5811 5810
5758 5759 5761 5763 5766 5767 5767 5767 5768 5769 5770 5771 5772 5773 5775 5777 5779 5781 5784 5785 5786 5787 5788 5790 5791 5792 5792 5792 5793 5794 5795 5796 5797 5796 5794 5795 5796 5797 5798 5799 5799 5797 5798 5800 5801 5801 5801 5800 5800 5800 5801 5801 5801 5801 5802 5802 5803 5804 5805 5805 5805 5805 5805 5806 5807 5808 5808 5808 5808 5809 5809 5809 5810 5811 5811 5812 5812 5811 5811 5811 5810 5810 5810 5810 5811 5811 5811 5811 5810 5810 5810 5809 5809 5809 5809 5808 5809
5755 5756 5758 5761 5763 5765 5766 5766 5766 5766 5767 5768 5770 5771 5773 5777 5780 5782 5781 5781 5784 5785 5786 5787 5789 5789 5790 5790 5791 5791 5793 5795 5795 5794 5792 5793 5795 5796 5795 5796 5796 5795 5795 5796 5798 5799 5799 5799 5799 5799 5799 5800 5800 5800 5801 5801 5801 5803 5804 5803 5803 5803 5804 5805 5806 5807 5807 5807 5807 5808 5808 5808 5809 5809 5810 5810 5810 5810 5810 5809 5809 5809 5809 5809 5809 5809 5809 5809 5809 5809 5808 5808 5807 5807 5807 5806 5807
5754 5754 5756 5759 5760 5763 5765 5766 5766 5766 5766 5767 5768 5768 5770 5776 5781 5782 5779 5778 5781 5782 5783 5785 5786 5787 5788 5788 5788 5790 5792 5793 5793 5792 5790 5790 5792 5792 5792 5793 5794 5793 5792 5793 5796 5797 5798 5798 5797 5797 5798 5798 5798 5799 5799 5800 5800 5801 5801 5801 5802 5802 5803 5804 5805 5805 5806 5806 5806 5807 5807 5807 5808 5808 5808 5808 5808 5808 5808 5808 5808 5808 5808 5808 5808 5809 5809 5808 5808 5808 5807 5807 5806 5805 5805 5805 5805
5752 5752 5754 5756 5758 5762 5765 5765 5765 5765 5765 5765 5766 5766 5769 5775 5779 5781 5778 5776 5778 5780 5781 5783 5784 5785 5785 5785 5786 5788 5790 5791 5791 5790 5788 5788 5790 5790 5790 5791 5792 5792 5791 5792 5794 5795 5796 5796 5795 5795 5796 5796 5797 5797 5798 5798 5799 5799 5799 5800 5801 5801 5802 5803 5803 5803 5803 5804 5804 5805 5806 5806 5807 5806 5806 5807 5807 5807 5807 5806 5807 5807 5807 5807 5808 5808 5808 5808 5807 5807 5806 5806 5805 5804 5804 5804 5804
5749 5750 5752 5754 5757 5760 5763 5763 5764 5765 5765 5765 5765 5765 5768 5774 5777 5779 5777 5774 5775 5777 5778 5780 5782 5783 5783 5783 5785 5786 5787 5788 5789 5788 5787 5787 5789 5789 5788 5788 5790 5790 5790 5791 5792 5793 5793 5794 5794 5794 5794 5795 5795 5796 5796 5797 5797 5798 5798 5798 5799 5800 5801 5801 5801 5801 5801 5801 5802 5803 5804 5805 5805 5805 5805 5806 5805 5805 5805 5805 5806 5806 5806 5806 5807 5807 5807 5807 5807 5806 5805 5805 5804 5804 5803 5803 5803
5748 5749 5751 5753 5754 5757 5760 5761 5763 5765 5766 5765 5764 5765 5767 5772 5776 5776 5774 5772 5773 5775 5776 5778 5780 5780 5781 5782 5782 5783 5785 5786 5787 5786 5786 5787 5787 5788 5787 5787 5788 5789 5789 5790 5790 5791 5792 5793 5793 5792 5792 5793 5793 5794 5794 5795 5795 5796 5796 5796 5797 5798 5798 5798 5799 5799 5799 5800 5801 5802 5802 5803 5803 5804 5804 5804 5804 5804 5804 5804 5805 5805 5805 5805 5805 5806 5806 5806 5805 5805 5804 5804 5804 5803 5803 5803 5803
5747 5747 5749 5751 5752 5753 5756 5758 5760 5761 5763 5763 5762 5763 5765 5770 5773 5773 5771 5770 5770 5772 5774 5776 5777 5777 5779 5779 5780 5782 5784 5785 5785 5784 5785 5786 5786 5786 5787 5788 5788 5788 5788 5788 5789 5790 5791 5791 5791 5790 5790 5791 5791 5792 5792 5793 5794 5794 5794 5794 5795 5795 5795 5796 5797 5798 5798 5799 5800 5800 5801 5802 5802 5803 5803 5803 5802 5802 5802 5803 5803 5803 5804 5804 5804 5805 5805 5804 5804 5803 5803 5803 5803 5803 5802 5802 5803
5744 5745 5746 5747 5748 5748 5751 5754 5755 5756 5757 5758 5759 5760 5763 5767 5770 5770 5769 5767 5767 5769 5771 5772 5774 5774 5776 5777 5778 5781 5782 5783 5783 5783 5784 5785 5785 5785 5786 5787 5788 5788 5788 5788 5788 5789 5789 5789 5789 5788 5788 5788 5788 5789 5790 5791 5792 5792 5793 5793 5793 5793 5793 5794 5795 5796 5797 5798 5799 5800 5801 5801 5801 5801 5801 5801 5801 5801 5801 5801 5801 5802 5802 5802 5803 5803 5803 5803 5802 5802 5802 5802 5802 5802 5802 5802 5803
5740 5741 5742 5743 5744 5745 5748 5750 5751 5752 5752 5754 5756 5758 5761 5764 5766 5766 5767 5766 5765 5766 5767 5768 5770 5770 5772 5774 5776 5779 5780 5781 5781 5782 5783 5783 5783 5783 5784 5785 5786 5786 5787 5787 5787 5787 5787 5787 5787 5786 5786 5785 5786 5787 5788 5789 5790 5791 5791 5792 5792 5791 5792 5792 5793 5795 5797 5797 5798 5799 5800 5800 5800 5800 5800 5800 5800 5799 5799 5799 5800 5800 5801 5801 5801 5801 5801 5801 5801 5801 5801 5801 5801 5801 5801 5802 5803
5737 5738 5739 5740 5742 5744 5747 5748 5749 5748 5748 5750 5753 5756 5759 5761 5762 5763 5764 5764 5763 5763 5763 5765 5767 5768 5770 5772 5774 5776 5778 5779 5780 5781 5781 5781 5781 5781 5783 5784 5784 5784 5785 5786 5786 5785 5785 5784 5784 5784 5783 5783 5784 5785 5786 5787 5788 5789 5789 5790 5790 5790 5791 5792 5793 5794 5795 5796 5797 5797 5798 5798 5798 5798 5799 5798 5798 5798 5798 5798 5798 5799 5799 5800 5800 5800 5800 5800 5800 5800 5799 5799 5799 5800 5800 5801 5802
5735 5735 5737 5738 5740 5743 5745 5745 5746 5745 5745 5748 5751 5753 5755 5757 5759 5761 5762 5763 5762 5760 5761 5763 5765 5766 5768 5769 5771 5774 5776 5777 5778 5779 5779 5779 5779 5780 5781 5782 5782 5782 5783 5784 5784 5784 5783 5782 5782 5782 5782 5782 5782 5783 5784 5785 5787 5787 5787 5788 5789 5790 5790 5790 5791 5792 5793 5794 5795 5795 5795 5796 5796 5796 5796 5796 5796 5796 5796 5797 5797 5797 5798 5798 5798 5798 5798 5798 5798 5798 5798 5798 5798 5798 5799 5800 5801
5732 5733 5734 5736 5738 5742 5743 5743 5743 5743 5743 5747 5749 5750 5753 5755 5757 5759 5760 5761 5761 5759 5760 5761 5762 5764 5765 5767 5770 5772 5774 5775 5776 5777 5778 5778 5778 5779 5780 5780 5781 5781 5781 5782 5783 5783 5782 5780 5780 5780 5780 5781 5781 5781 5782 5783 5785 5785 5786 5786 5787 5788 5788 5789 5790 5790 5791 5792 5792 5793 5793 5794 5794 5795 5795 5795 5795 5795 5795 5795 5795 5796 5796 5796 5796 5797 5797 5797 5797 5797 5798 5798 5798 5797 5798 5799 5800
5730 5731 5732 5734 5737 5739 5740 5741 5741 5741 5742 5745 5747 5749 5751 5752 5755 5757 5757 5758 5759 5759 5759 5760 5761 5761 5763 5766 5768 5770 5772 5773 5774 5776 5776 5776 5776 5777 5778 5779 5779 5780 5780 5781 5781 5781 5780 5779 5778 5778 5778 5779 5779 5779 5780 5781 5782 5783 5784 5785 5786 5787 5787 5788 5788 5788 5789 5789 5790 5792 5793 5794 5794 5794 5794 5794 5794 5794 5794 5794 5794 5794 5795 5795 5795 5795 5795 5795 5796 5796 5797 5797 5797 5797 5797 5797 5798
5728 5729 5730 5733 5735 5736 5738 5738 5739 5740 5741 5744 5746 5747 5748 5749 5752 5755 5755 5756 5757 5757 5757 5758 5759 5760 5762 5765 5767 5768 5770 5771 5773 5774 5774 5774 5775 5776 5776 5776 5777 5777 5778 5778 5779 5778 5778 5777 5776 5776 5777 5777 5777 5778 5778 5779 5780 5781 5782 5783 5784 5785 5786 5787 5787 5787 5788 5789 5790 5792 5793 5794 5793 5792 5792 5792 5792 5792 5793 5793 5793 5793 5794 5794 5793 5794 5794 5794 5794 5795 5796 5796 5796 5796 5796 5796 5796
5726 5727 5729 5731 5732 5733 5735 5736 5737 5738 5739 5742 5744 5744 5745 5747 5750 5752 5753 5754 5755 5755 5754 5755 5757 5758 5761 5764 5766 5767 5769 5770 5771 5771 5772 5772 5773 5773 5774 5774 5774 5774 5775 5775 5776 5775 5775 5774 5774 5774 5774 5774 5775 5775 5776 5777 5778 5779 5780 5782 5783 5784 5785 5786 5786 5787 5788 5790 5791 5792 5792 5791 5791 5791 5791 5791 5791 5791 5791 5791 5792 5792 5792 5792 5792 5793 5793 5793 5793 5794 5794 5795 5795 5796 5796 5796 5796
5724 5726 5728 5729 5730 5731 5733 5734 5735 5736 5737 5738 5740 5742 5743 5746 5748 5749 5751 5753 5753 5753 5753 5754 5755 5758 5760 5762 5764 5766 5767 5768 5769 5769 5769 5770 5771 5771 5771 5771 5771 5771 5772 5772 5772 5772 5772 5772 5771 5771 5771 5772 5772 5773 5773 5775 5776 5777 5778 5779 5781 5782 5783 5783 5784 5786 5788 5789 5790 5790 5789 5789 5789 5789 5789 5789 5789 5789 5789 5790 5790 5790 5790 5791 5791 5791 5791 5792 5792 5793 5793 5794 5794 5794 5795 5795 5795
5722 5725 5727 5727 5728 5729 5730 5731 5733 5735 5735 5736 5737 5740 5742 5744 5746 5747 5749 5750 5750 5751 5752 5753 5755 5757 5759 5761 5763 5764 5765 5765 5766 5766 5767 5768 5768 5769 5768 5769 5769 5769 5769 5769 5769 5769 5769 5769 5769 5769 5769 5769 5770 5770 5771 5773 5774 5775 5776 5777 5778 5779 5780 5781 5783 5784 5786 5787 5787 5787 5787 5787 5787 5787 5787 5787 5787 5788 5788 5788 5788 5789 5789 5790 5790 5790 5790 5790 5791 5791 5792 5793 5793 5793 5794 5794 5794
5720 5722 5724 5725 5726 5727 5728 5729 5731 5733 5733 5734 5735 5737 5741 5743 5744 5745 5747 5748 5748 5750 5751 5752 5754 5756 5758 5759 5760 5762 5762 5763 5763 5763 5764 5765 5765 5765 5765 5766 5767 5766 5766 5766 5766 5766 5767 5767 5768 5768 5768 5768 5768 5769 5770 5771 5772 5773 5774 5775 5776 5777 5778 5779 5781 5783 5785 5785 5785 5785 5785 5785 5785 5786 5786 5786 5786 5786 5786 5786 5787 5787 5788 5788 5789 5789 5789 5789 5789 5790 5790 5791 5792 5792 5793 5793 5793
5718 5719 5721 5723 5724 5725 5727 5728 5730 5731 5731 5733 5734 5735 5738 5741 5742 5743 5744 5745 5746 5748 5749 5751 5753 5754 5755 5757 5758 5760 5761 5761 5761 5760 5761 5761 5762 5762 5762 5763 5764 5764 5764 5764 5764 5764 5765 5765 5766 5767 5767 5767 5767 5768 5769 5770 5771 5772 5772 5773 5774 5775 5776 5777 5779 5781 5782 5783 5783 5783 5783 5784 5784 5785 5785 5785 5784 5784 5785 5785 5785 5786 5786 5787 5788 5788 5788 5788 5788 5788 5789 5789 5790 5791 5791 5792 5792
5716 5717 5719 5721 5722 5723 5725 5727 5728 5729 5729 5731 5733 5734 5736 5739 5740 5741 5742 5743 5744 5746 5747 5749 5751 5752 5753 5754 5757 5758 5759 5758 5758 5758 5758 5759 5759 5759 5760 5760 5761 5761 5761 5762 5762 5763 5764 5764 5765 5765 5765 5765 5766 5767 5768 5769 5770 5770 5771 5772 5773 5774 5774 5775 5777 5778 5779 5780 5780 5781 5781 5782 5783 5783 5783 5783 5783 5782 5783 5783 5784 5784 5785 5786 5786 5786 5786 5786 5786 5786 5787 5787 5788 5789 5789 5790 5790
5714 5715 5717 5719 5720 5722 5723 5725 5726 5727 5728 5730 5732 5733 5734 5737 5739 5740 5740 5740 5742 5743 5745 5747 5749 5751 5752 5754 5755 5756 5756 5756 5755 5755 5756 5757 5757 5757 5757 5758 5759 5760 5760 5760 5760 5761 5762 5763 5764 5764 5764 5764 5765 5766 5766 5767 5768 5769 5770 5771 5771 5772 5773 5773 5774 5775 5776 5777 5777 5778 5779 5780 5780 5780 5781 5781 5781 5781 5781 5782 5782 5783 5783 5784 5784 5785 5784 5784 5784 5785 5785 5785 5786 5787 5787 5788 5788
5713 5714 5715 5717 5718 5720 5722 5723 5724 5725 5727 5729 5731 5732 5733 5734 5736 5737 5738 5738 5739 5741 5742 5745 5746 5748 5750 5751 5752 5753 5754 5754 5754 5754 5755 5756 5756 5756 5756 5756 5757 5758 5759 5759 5759 5760 5761 5761 5762 5762 5762 5763 5763 5764 5765 5766 5767 5768 5768 5769 5769 5770 5770 5771 5772 5772 5773 5774 5774 5775 5776 5776 5776 5777 5778 5779 5779 5779 5779 5780 5780 5781 5781 5782 5782 5783 5783 5783 5783 5784 5784 5784 5784 5785 5785 5786 5786
5711 5712 5713 5715 5716 5718 5719 5721 5722 5724 5726 5727 5729 5730 5731 5732 5733 5735 5736 5737 5738 5739 5741 5742 5743 5744 5746 5748 5749 5751 5751 5751 5752 5753 5753 5754 5755 5754 5755 5755 5755 5756 5757 5758 5758 5759 5760 5760 5760 5761 5761 5761 5762 5763 5764 5765 5766 5766 5766 5766 5766 5767 5768 5769 5769 5770 5771 5771 5772 5772 5773 5773 5773 5774 5775 5776 5776 5777 5777 5777 5778 5778 5779 5780 5780 5780 5781 5781 5782 5782 5783 5783 5783 5783 5784 5784 5785
5710 5711 5711 5712 5714 5716 5718 5719 5721 5722 5724 5726 5727 5728 5727 5729 5731 5733 5735 5737 5737 5737 5739 5740 5741 5742 5744 5746 5747 5748 5748 5749 5750 5750 5751 5752 5752 5752 5752 5752 5753 5754 5755 5757 5757 5758 5758 5758 5759 5759 5759 5760 5761 5762 5763 5763 5763 5763 5763 5764 5764 5765 5766 5766 5767 5768 5769 5769 5770 5770 5771 5771 5771 5772 5773 5773 5774 5774 5774 5775 5775 5776 5777 5777 5778 5778 5779 5780 5780 5781 5781 5781 5781 5782 5782 5783 5783
5708 5709 5710 5711 5713 5715 5717 5718 5719 5720 5722 5724 5725 5724 5724 5726 5728 5730 5733 5734 5735 5736 5737 5738 5740 5741 5743 5744 5745 5745 5746 5747 5748 5748 5749 5749 5750 5750 5750 5750 5751 5752 5754 5755 5755 5755 5755 5756 5757 5758 5758 5759 5759 5760 5761 5761 5761 5761 5761 5761 5762 5762 5763 5764 5765 5765 5766 5767 5768 5768 5769 5769 5770 5770 5771 5772 5772 5772 5772 5772 5773 5774 5775 5776 5776 5777 5777 5778 5778 5779 5779 5779 5780 5780 5781 5781 5782
5706 5707 5708 5710 5712 5713 5715 5716 5717 5719 5720 5721 5721 5721 5722 5724 5726 5728 5730 5732 5733 5734 5735 5736 5737 5738 5740 5742 5742 5743 5744 5746 5746 5746 5747 5747 5748 5748 5748 5749 5750 5751 5752 5752 5752 5752 5753 5754 5755 5756 5756 5757 5757 5758 5759 5759 5759 5759 5759 5760 5760 5761 5761 5762 5762 5763 5764 5765 5766 5766 5767 5767 5767 5768 5769 5770 5770 5770 5770 5770 5771 5772 5773 5774 5775 5775 5775 5776 5776 5777 5777 5778 5778 5778 5779 5779 5780
5704 5706 5707 5708 5709 5710 5711 5713 5714 5716 5717 5718 5718 5719 5720 5721 5724 5726 5728 5729 5730 5731 5732 5733 5734 5735 5738 5740 5741 5741 5742 5743 5744 5744 5745 5745 5746 5746 5747 5748 5748 5748 5749 5749 5750 5750 5751 5753 5754 5754 5755 5755 5756 5756 5757 5757 5757 5757 5757 5758 5758 5759 5760 5760 5760 5761 5762 5763 5763 5764 5764 5764 5765 5766 5767 5768 5768 5768 5768 5768 5769 5770 5771 5772 5773 5773 5773 5774 5774 5775 5775 5776 5776 5777 5777 5777 5778
5702 5703 5704 5705 5707 5708 5709 5710 5711 5712 5714 5715 5716 5717 5717 5718 5720 5723 5725 5727 5728 5728 5729 5730 5731 5733 5735 5738 5739 5739 5740 5740 5741 5742 5742 5743 5744 5745 5745 5745 5745 5745 5745 5746 5747 5747 5749 5751 5752 5753 5753 5754 5754 5754 5754 5755 5755 5755 5755 5756 5757 5757 5758 5758 5758 5759 5760 5760 5761 5761 5761 5762 5762 5763 5764 5765 5766 5766 5766 5766 5767 5767 5768 5769 5770 5771 5771 5772 5773 5773 5774 5775 5775 5775 5776 5775 5775
5699 5700 5700 5702 5704 5705 5706 5708 5709 5711 5712 5713 5714 5715 5714 5715 5718 5720 5722 5724 5724 5725 5726 5727 5728 5730 5732 5734 5735 5736 5736 5737 5737 5738 5739 5740 5740 5741 5742 5742 5742 5741 5742 5743 5744 5746 5747 5749 5750 5751 5751 5750 5750 5750 5750 5750 5751 5751 5752 5753 5754 5755 5756 5756 5756 5757 5758 5758 5758 5758 5759 5759 5760 5761 5761 5762 5763 5763 5764 5764 5764 5765 5765 5766 5767 5768 5769 5770 5771 5771 5772 5773 5773 5773 5773 5773 5773
5696 5697 5698 5700 5701 5702 5704 5705 5707 5708 5710 5711 5712 5713 5712 5713 5716 5718 5720 5721 5721 5722 5723 5723 5725 5727 5729 5730 5731 5731 5731 5732 5732 5733 5733 5735 5736 5736 5737 5738 5738 5738 5739 5741 5742 5744 5745 5746 5747 5748 5748 5747 5746 5746 5746 5747 5748 5749 5750 5752 5753 5754 5754 5754 5755 5755 5756 5756 5756 5756 5756 5757 5758 5758 5758 5759 5760 5761 5761 5761 5761 5762 5763 5764 5765 5766 5767 5767 5768 5769 5769 5770 5770 5770 5770 5770 5770
5693 5695 5696 5697 5699 5700 5702 5703 5704 5706 5707 5709 5710 5711 5711 5712 5714 5716 5718 5719 5719 5720 5722 5721 5721 5724 5726 5727 5728 5728 5729 5729 5730 5729 5728 5729 5730 5730 5731 5731 5733 5735 5736 5738 5740 5741 5743 5744 5744 5745 5744 5743 5743 5744 5746 5748 5749 5750 5750 5751 5752 5753 5753 5753 5753 5753 5754 5754 5753 5753 5754 5755 5756 5756 5756 5757 5757 5758 5758 5758 5759 5759 5760 5761 5762 5763 5764 5765 5765 5766 5766 5766 5767 5767 5767 5768 5768